Weather in Mugur-Aksy

Russia / Tyva Republic     50°22′57″N   90°25′57″E
temp.,
°C
wind,
m/s
gust,
m/s
humid.,
%
clouds,
%
prec.,
mm/h
press.,
hPa
HPBL,
m
5 march, fri
fri501:00−22ssw33652 0.0 103031
04:00−22ssw43608 0.0 103035
07:00−23sw445928 0.0 103038
10:00−18ssw446698 0.0 1028111
13:00−12s566497 0.0 1024293
16:00−12s4568100 0.0 1022267
19:00−16w129989 0.4 102722
22:00−18wsw338650 0.3 103224
6 march, sat
sat601:00−20sw338525 0.3 103428
04:00−20sw337728 0.0 103430
07:00−20sw336516 0.0 103633
10:00−15ssw347024 0.0 1033106
13:00−10s446344 0.0 1028310
16:00−10s446990 0.0 1025257
19:00−17ssw337061 0.0 102634
22:00−19sw33570 0.0 102732
7 march, sun
sun701:00−19sw33540 0.0 102732
04:00−19sw33490 0.0 102632
07:00−19sw33430 0.0 102729
10:00−12sw33510 0.0 102686
13:00−8ssw33531 0.0 1023285
16:00−7ssw33610 0.0 1022306
19:00−14sw23610 0.0 102525
22:00−15wsw235225 0.0 102823
8 march, mon
mon801:00−15sw234763 0.0 102924
04:00−16sw2243100 0.0 102825
07:00−16sw334299 0.0 103026
10:00−11ssw335396 0.0 102777
13:00−6s345950 0.0 1023283
16:00−6s34670 0.0 1021275
19:00−13ssw33670 0.0 102233
22:00−14ssw33550 0.0 102332
9 march, tue
tue901:00−13sw335633 0.0 102432
04:00−13wsw2362100 0.0 102527
07:00−14wsw236870 0.0 102725
10:00−10sw237219 0.0 1027217
13:00−6sw255922 0.0 10251008
16:00−5ssw246047 0.0 10241078
19:00−13sw228024 0.0 102625
22:00−15sw22750 0.0 102827